Flag for Cyprus Weather past 2 weeks in Nicosia, Cyprus

Now
61 °F

Broken clouds.


Feels Like: 61 °F
Forecast: 53 / 74 °F
Wind: 15 mph from East

Location: Ercan


UV Index: 7 (High)

Visibility: N/A


Pressure: 30.01 "Hg

Humidity: 88%

Dew point: 57 °F

Location of NicosiaLocation

Historic Weather in Nicosia

°F

Nicosia temperature yesterday

Maximum temperature yesterday: 81 °F (at 2:20 PM)
Minimum temperature yesterday: 50 °F (at 6:50 AM)
Average temperature yesterday: 66 °F

Past Weeks' High & Low Weather Summary

 TemperatureHumidityPressure
High86 °F (Apr 7, 1:50 PM)94% (Apr 5, 2:20 AM)30.12 "Hg (Apr 5, 2:20 AM)
Low45 °F (Apr 6, 4:20 AM)12% (Apr 7, 11:50 AM)29.71 "Hg (Apr 17, 3:50 PM)
Average63 °F64%29.94 "Hg
* Reported Apr 4 2:20 PM — Apr 19 2:20 PM, Nicosia, Weather by CustomWeather, © 2014

Note: Actual official high and low records may vary slightly from our data, if they occured in-between our weather recording intervals... More about our weather records

Advertising

Historic Weather Conditions — Data for Previous 24 hours

 ConditionsComfort  
Time TempWeatherWind HumidityBarometerVisibility
2:20 PM
Apr 19
63 °FBroken clouds.12 mph88%30.04 "HgN/A
1:20 PM64 °FSprinkles. Broken clouds.8 mph83%30.04 "Hg5 mi
12:50 PM66 °FSprinkles. Broken clouds.5 mph73%30.04 "Hg5 mi
12:20 PM70 °FBroken clouds.8 mph60%30.01 "HgN/A
11:50 AM68 °FBroken clouds.9 mph64%30.01 "HgN/A
11:20 AM68 °FBroken clouds.14 mph60%29.98 "HgN/A
10:50 AM70 °FBroken clouds.14 mph60%29.98 "HgN/A
10:20 AM66 °FBroken clouds.10 mph68%29.98 "HgN/A
9:50 AM64 °FBroken clouds.13 mph78%29.98 "HgN/A
9:20 AM64 °FBroken clouds.13 mph78%29.95 "HgN/A
8:50 AM63 °FBroken clouds.12 mph88%29.98 "HgN/A
8:20 AM63 °FBroken clouds.10 mph88%29.98 "HgN/A
7:50 AM61 °FSprinkles. Broken clouds.5 mph88%29.98 "Hg5 mi
7:20 AM61 °FSprinkles. Broken clouds.3 mph88%29.95 "HgN/A
6:50 AM61 °FPartly cloudy.3 mph88%29.92 "HgN/A
5:50 AM61 °FPartly cloudy.5 mph83%29.89 "HgN/A
5:20 AM59 °FPartly cloudy.5 mph88%29.89 "HgN/A
4:50 AM59 °FPartly cloudy.3 mph88%29.89 "HgN/A
4:20 AM59 °FPartly cloudy.5 mph88%29.92 "HgN/A
3:50 AM61 °FSprinkles. Partly cloudy.No wind83%29.95 "HgN/A
3:20 AM59 °FPartly cloudy.No wind88%29.95 "HgN/A
2:50 AM59 °FPartly cloudy.6 mph82%29.95 "HgN/A
2:20 AM57 °FPassing clouds.No wind82%29.89 "HgN/A
1:50 AM57 °FPartly cloudy.No wind88%29.89 "HgN/A
1:20 AM59 °FPassing clouds.7 mph82%29.95 "HgN/A
12:50 AM59 °FPassing clouds.No wind82%29.95 "HgN/A
12:20 AM59 °FPassing clouds.No wind82%29.92 "HgN/A
11:50 PM
Apr 18
57 °FPassing clouds.6 mph88%29.92 "HgN/A
11:20 PM59 °FPassing clouds.5 mph82%29.92 "HgN/A
10:50 PM59 °FPassing clouds.No wind88%29.92 "HgN/A
10:20 PM61 °FPassing clouds.No wind83%29.92 "HgN/A
9:50 PM63 °FPassing clouds.6 mph83%29.92 "HgN/A
9:20 PM63 °FPassing clouds.No wind77%29.92 "HgN/A
8:50 PM64 °FPassing clouds.7 mph73%29.92 "HgN/A
8:20 PM64 °FPassing clouds.12 mph73%29.89 "HgN/A
7:50 PM66 °FScattered clouds.9 mph68%29.89 "HgN/A
7:20 PM68 °FScattered clouds.10 mph60%29.89 "HgN/A
6:50 PM73 °FScattered clouds.8 mph36%29.89 "HgN/A
6:20 PM75 °FScattered clouds.12 mph31%29.89 "HgN/A
5:50 PM75 °FScattered clouds.13 mph29%29.89 "HgN/A
5:20 PM77 °FScattered clouds.14 mph28%29.89 "HgN/A
4:50 PM79 °FScattered clouds.16 mph26%29.89 "HgN/A
4:20 PM81 °FScattered clouds.17 mph23%29.89 "HgN/A
3:50 PM81 °FPassing clouds.17 mph23%29.89 "HgN/A
3:20 PM81 °FPassing clouds.20 mph23%29.89 "HgN/A
Weather by CustomWeather, © 2014

See weather overview